Stations météo

réclame
Mon MeteoGroup
Sete, France (7641): Température de l'air & dewpoint: 12.01.2019 13:00:00 - 18.01.2019 13:00:00 (CET)Sete, France (7641): Vitesse du vent & gusts: 12.01.2019 13:00:00 - 18.01.2019 13:00:00 (CET)Sete, France (7641): Direction du vent: 12.01.2019 13:00:00 - 18.01.2019 13:00:00 (CET)Sete, France (7641): reduced air pressure: 12.01.2019 13:00:00 - 18.01.2019 13:00:00 (CET)Sete, France (7641): visibility: 12.01.2019 13:00:00 - 18.01.2019 13:00:00 (CET)Sete, France (7641): Quantités de précipitations: 12.01.2019 13:00:00 - 18.01.2019 13:00:00 (CET)
Date & Time tt [°C] td [°C] ff [km/h] ff [knt] fx [km/h] fx [knt] dd ppp [hPa] vv [km] rr [mm]
18.01.2019 13:00:00 - - - - - - - - - -
18.01.2019 12:00:00 8,4 1,5 14 8 25 14 W 1017,4 - 0,0
18.01.2019 11:00:00 7,8 0,7 11 6 25 14 WSW 1018,1 - 0,0
18.01.2019 10:00:00 5,7 0,6 11 6 29 16 WSW 1018,2 - 0,0
18.01.2019 09:00:00 6,5 0,4 13 7 34 18 NW 1018,1 - 0,0
18.01.2019 08:00:00 5,6 0,8 16 9 38 21 NW 1017,7 - 0,0
18.01.2019 07:00:00 5,5 0,8 13 7 35 19 W 1017,4 20 0,0
18.01.2019 06:00:00 6,1 0,6 18 10 37 20 WNW 1017,5 - 0,0
18.01.2019 05:00:00 6,4 0,3 18 10 33 18 WNW 1017,7 - 0,0
18.01.2019 04:00:00 6,7 0,6 16 9 32 17 NW 1018,1 - 0,0
18.01.2019 03:00:00 6,7 0,6 11 6 23 13 WNW 1018,5 - 0,0
18.01.2019 02:00:00 6,5 1,2 12 7 24 13 NW 1018,2 - 0,0
18.01.2019 01:00:00 7,0 1,7 14 7 35 19 NW 1018,3 - 0,0
18.01.2019 00:00:00 7,2 2,1 15 8 26 14 NW 1018,5 - 0,0
17.01.2019 23:00:00 7,0 2,1 7 4 29 16 NNW 1018,3 - 0,0
17.01.2019 22:00:00 7,4 2,3 4 2 22 12 NNW 1017,8 - 0,0
17.01.2019 21:00:00 8,5 2,5 12 7 27 14 WNW 1017,5 - 0,0
17.01.2019 20:00:00 9,1 2,2 12 6 30 16 WNW 1017,1 - 0,0
17.01.2019 19:00:00 9,4 2,3 8 5 27 14 NW 1016,9 - 0,0
17.01.2019 18:00:00 9,8 2,4 12 7 40 22 NW 1016,3 - 0,0
17.01.2019 17:00:00 10,5 2,3 15 8 39 21 NW 1016,0 - 0,0
17.01.2019 16:00:00 11,1 1,9 15 8 34 19 NW 1015,7 20 0,0
17.01.2019 15:00:00 12,2 1,8 11 6 37 20 NW 1015,2 - 0,0
17.01.2019 14:00:00 12,4 3,3 13 7 36 19 NW 1015,1 - 0,0
17.01.2019 13:00:00 11,8 4,5 15 8 41 22 NW 1015,3 - 0,0
17.01.2019 12:00:00 10,3 4,9 13 7 24 13 W 1015,8 - 0,0
17.01.2019 11:00:00 9,3 3,9 9 5 24 13 W 1016,2 - 0,0
17.01.2019 10:00:00 9,9 3,0 10 5 20 11 WNW 1015,6 12 0,0
17.01.2019 09:00:00 10,1 2,7 9 5 20 11 NW 1015,2 - 0,0
17.01.2019 08:00:00 8,1 3,5 8 4 24 13 SW 1015,0 - 0,0
17.01.2019 07:00:00 8,5 3,5 14 8 28 15 NW 1014,9 12 0,0
17.01.2019 06:00:00 7,8 4,0 18 10 29 16 WNW 1014,8 - 0,0
17.01.2019 05:00:00 8,7 6,7 3 2 9 5 WNW 1015,0 - 0,0
17.01.2019 04:00:00 9,3 7,2 8 4 28 15 NNW 1015,3 - 0,0
17.01.2019 03:00:00 9,1 7,2 18 10 28 15 NNW 1015,7 - 0,0
17.01.2019 02:00:00 9,4 7,7 11 6 21 12 N 1015,8 - 0,0
17.01.2019 01:00:00 9,2 7,8 14 8 23 12 N 1016,2 - 0,0
17.01.2019 00:00:00 9,0 7,9 16 9 26 14 N 1016,6 - 0,0
16.01.2019 23:00:00 9,2 8,0 16 9 24 13 N 1016,7 - 0,0
16.01.2019 22:00:00 9,9 8,3 11 6 18 10 N 1016,6 - 0,0
16.01.2019 21:00:00 10,3 8,4 8 4 14 8 NNE 1016,3 - 0,0
16.01.2019 20:00:00 10,3 8,1 7 4 14 8 NNE 1016,4 - 0,0
16.01.2019 19:00:00 11,0 8,2 5 3 16 8 ESE 1016,2 12 0,0
16.01.2019 18:00:00 11,2 8,6 5 3 29 15 SE 1016,2 - 0,0
16.01.2019 17:00:00 11,1 8,1 14 8 32 17 ENE 1016,3 - 0,0
16.01.2019 16:00:00 10,5 6,4 19 10 31 17 NE 1016,5 20 0,0
16.01.2019 15:00:00 10,1 5,9 17 9 31 17 NE 1017,0 - 0,0
16.01.2019 14:00:00 9,5 4,9 16 8 29 16 NE 1017,4 - 0,0
16.01.2019 13:00:00 9,5 4,3 15 8 29 16 NE 1018,2 20 0,0
16.01.2019 12:00:00 9,0 3,2 17 9 31 17 NE 1018,9 - 0,0
16.01.2019 11:00:00 7,8 2,3 18 10 31 17 NE 1019,9 - 0,0
16.01.2019 10:00:00 7,4 0,8 18 10 30 16 NNE 1019,7 20 0,0
16.01.2019 09:00:00 6,0 -0,7 19 10 34 18 N 1019,4 - 0,0
16.01.2019 08:00:00 5,4 -1,1 21 12 34 19 NNE 1019,2 - 0,0
16.01.2019 07:00:00 5,3 -1,0 20 11 34 19 N 1019,1 20 0,0
16.01.2019 06:00:00 5,6 -1,1 20 11 31 17 N 1019,1 - 0,0
16.01.2019 05:00:00 5,8 -1,1 21 11 31 17 N 1019,4 - 0,0
16.01.2019 04:00:00 6,1 -1,8 19 11 28 15 NNE 1019,7 20 0,0
16.01.2019 03:00:00 6,9 -1,8 16 9 26 14 NNE 1020,0 - 0,0
16.01.2019 02:00:00 6,9 -2,0 18 10 31 17 N 1020,1 - 0,0
16.01.2019 01:00:00 7,4 -1,6 22 12 37 20 N 1020,2 - 0,0
16.01.2019 00:00:00 7,6 -1,9 25 13 40 22 N 1020,6 - 0,0
15.01.2019 23:00:00 7,3 -0,9 22 12 36 19 N 1020,8 - 0,0
15.01.2019 22:00:00 7,3 0,0 19 10 32 17 N 1021,1 - 0,0
15.01.2019 21:00:00 7,5 0,0 18 10 27 15 N 1020,9 - 0,0
15.01.2019 20:00:00 8,2 0,2 18 10 31 17 NNE 1020,9 - 0,0
15.01.2019 19:00:00 10,2 2,8 12 7 29 16 E 1020,3 20 0,0
15.01.2019 18:00:00 10,3 2,6 4 2 15 8 ESE 1019,9 - 0,0
15.01.2019 17:00:00 10,5 1,8 6 4 13 7 SSE 1019,8 - 0,0
15.01.2019 16:00:00 11,4 -0,4 3 2 12 6 SSE 1019,4 20 0,0
15.01.2019 15:00:00 12,4 2,0 7 4 16 9 SSE 1019,7 - 0,0
15.01.2019 14:00:00 13,2 -3,6 8 4 18 10 NNW 1020,3 - 0,0
15.01.2019 13:00:00 12,7 -2,8 8 4 20 11 NW 1021,1 20 0,0
15.01.2019 12:00:00 11,3 -1,5 10 5 29 16 NW 1022,1 - 0,0
15.01.2019 11:00:00 9,4 -0,8 17 9 36 19 NNW 1022,7 - 0,0
15.01.2019 10:00:00 8,7 -1,7 19 11 39 21 NW 1022,7 - 0,0
15.01.2019 09:00:00 7,4 -1,8 24 13 42 23 NNW 1022,2 - 0,0
15.01.2019 08:00:00 6,9 -1,8 27 15 42 23 NNW 1021,7 - 0,0
15.01.2019 07:00:00 7,2 -2,0 26 14 42 23 NNW 1021,4 - 0,0
15.01.2019 06:00:00 7,2 -1,5 14 7 31 17 NNW 1021,5 - 0,0
15.01.2019 05:00:00 7,6 -1,4 16 8 40 22 NNW 1021,5 - 0,0
15.01.2019 04:00:00 7,9 -0,8 16 9 46 25 NW 1021,6 - 0,0
15.01.2019 03:00:00 8,1 -0,7 19 10 35 19 NW 1021,8 - 0,0
15.01.2019 02:00:00 7,9 -0,8 11 6 28 15 NW 1022,1 - 0,0
15.01.2019 01:00:00 8,1 -1,2 8 5 37 20 WNW 1022,1 - 0,0
15.01.2019 00:00:00 8,6 -1,3 19 10 34 19 NW 1021,9 - 0,0
14.01.2019 23:00:00 9,1 -0,8 13 7 38 20 NW 1021,6 - 0,0
14.01.2019 22:00:00 9,5 1,9 16 9 35 19 NNW 1021,2 - 0,0
14.01.2019 21:00:00 10,2 2,5 13 7 31 17 NW 1020,8 - 0,0
14.01.2019 20:00:00 10,6 2,7 19 11 41 22 NW 1020,2 - 0,0
14.01.2019 19:00:00 11,0 2,6 13 7 37 20 NW 1020,0 20 0,0
14.01.2019 18:00:00 11,5 3,0 8 4 44 24 W 1019,2 - 0,0
14.01.2019 17:00:00 12,2 1,2 15 8 46 25 NW 1018,5 - 0,0
14.01.2019 16:00:00 12,5 3,2 22 12 55 30 NW 1017,9 25 0,0
14.01.2019 15:00:00 13,2 3,0 21 11 50 27 NNW 1017,3 - 0,0
14.01.2019 14:00:00 13,8 2,7 27 14 60 32 NW 1016,9 - 0,0
14.01.2019 13:00:00 13,5 3,0 27 15 58 31 NNW 1017,4 25 0,0
14.01.2019 12:00:00 13,3 3,4 16 9 59 32 NNW 1018,2 - 0,0
14.01.2019 11:00:00 12,4 3,9 18 10 46 25 NNW 1018,8 - 0,0
14.01.2019 10:00:00 11,5 5,4 7 4 63 34 WNW 1017,9 20 0,0
14.01.2019 09:00:00 11,7 5,3 33 18 74 40 NW 1016,3 - 0,0
14.01.2019 08:00:00 11,7 4,7 34 18 68 37 NW 1016,2 - 0,0
14.01.2019 07:00:00 11,5 4,7 29 16 58 31 NNW 1015,9 20 0,0
14.01.2019 06:00:00 11,5 4,2 34 18 67 36 NW 1015,1 - 0,0
14.01.2019 05:00:00 11,4 4,4 31 17 75 41 NNW 1015,6 - 0,0
14.01.2019 04:00:00 11,5 4,7 31 17 60 32 NW 1016,3 - 0,0
14.01.2019 03:00:00 10,9 6,4 24 13 52 28 NW 1016,4 - 0,0
14.01.2019 02:00:00 11,0 6,9 27 15 54 29 NW 1015,8 - 0,0
14.01.2019 01:00:00 12,3 6,1 25 14 53 29 NW 1016,1 - 0,0
14.01.2019 00:00:00 12,2 6,2 8 4 41 22 E 1017,2 - 0,0
13.01.2019 23:00:00 12,5 6,3 20 11 40 22 NW 1017,6 - 0,0
13.01.2019 22:00:00 12,5 6,3 12 6 41 22 WNW 1018,0 - 0,0
13.01.2019 21:00:00 12,1 6,6 13 7 37 20 WNW 1018,0 - 0,0
13.01.2019 20:00:00 11,5 6,2 8 4 20 11 WNW 1019,1 - 0,0
13.01.2019 19:00:00 11,3 6,0 5 3 38 20 S 1019,4 20 0,0
13.01.2019 18:00:00 11,9 6,0 18 10 46 25 NW 1019,9 - 0,0
13.01.2019 17:00:00 12,2 5,4 17 9 55 30 NW 1019,7 - 0,0
13.01.2019 16:00:00 12,3 5,2 25 13 61 33 NW 1020,0 - 0,0
13.01.2019 15:00:00 12,7 5,4 17 9 58 31 NNW 1020,4 - 0,0
13.01.2019 14:00:00 13,1 5,3 16 8 58 31 NW 1020,8 - 0,0
13.01.2019 13:00:00 12,7 5,1 20 11 60 32 NNW 1021,4 20 0,0
13.01.2019 12:00:00 12,2 4,9 16 9 55 30 NW 1021,8 - 0,0
13.01.2019 11:00:00 11,0 4,4 16 9 40 21 WNW 1022,6 - 0,0
13.01.2019 10:00:00 10,1 4,0 16 9 46 25 NW 1022,7 20 0,0
13.01.2019 09:00:00 9,3 3,7 12 7 42 23 WNW 1023,0 - 0,0
13.01.2019 08:00:00 9,2 3,4 15 8 40 21 NW 1022,4 - 0,0
13.01.2019 07:00:00 9,0 3,4 10 5 41 22 WNW 1022,2 - 0,0
13.01.2019 06:00:00 9,1 2,9 18 10 52 28 NW 1022,1 - 0,0
13.01.2019 05:00:00 8,1 2,5 10 6 41 22 WNW 1022,8 - 0,0
13.01.2019 04:00:00 8,3 2,3 28 15 54 29 NW 1023,6 20 0,0
13.01.2019 03:00:00 8,2 2,2 24 13 56 31 NNW 1024,2 - 0,0
13.01.2019 02:00:00 8,1 1,7 24 13 48 26 NW 1024,5 - 0,0
13.01.2019 01:00:00 7,9 1,5 27 15 61 33 NW 1025,0 - 0,0
13.01.2019 00:00:00 7,9 1,3 10 5 62 33 WNW 1025,6 - 0,0
12.01.2019 23:00:00 7,6 1,2 16 8 55 30 WNW 1025,2 - 0,0
12.01.2019 22:00:00 8,0 1,2 13 7 51 28 NW 1025,7 - 0,0
12.01.2019 21:00:00 7,9 1,1 10 6 44 24 NW 1025,5 - 0,0
12.01.2019 20:00:00 8,0 0,5 20 11 47 26 NW 1025,8 - 0,0
12.01.2019 19:00:00 8,1 0,1 19 11 44 24 NW 1025,7 - 0,0
12.01.2019 18:00:00 8,5 0,2 18 10 43 23 NW 1025,2 - 0,0
12.01.2019 17:00:00 9,3 -0,1 17 9 49 27 NW 1024,7 - 0,0
12.01.2019 16:00:00 10,1 -0,7 22 12 45 24 NNW 1024,6 20 0,0
12.01.2019 15:00:00 10,8 -0,1 21 12 49 26 NNW 1024,6 - 0,0
12.01.2019 14:00:00 11,0 1,2 21 11 52 28 NNW 1024,5 - 0,0
12.01.2019 13:00:00 10,4 1,0 27 15 55 30 NW 1024,9 25 0,0

tt = Température de l'air
td = dewpoint
ff = Vitesse du vent
fx = gusts
dd = Direction du vent
ppp = reduced air pressure
vv = visibility
rr = Quantités de précipitations

stations d'obs. à proximité